946  
ASUS44 KLIX 080911  
RWRLIX  
NEW ORLEANS REGIONAL WEATHER ROUNDUP  
NATIONAL WEATHER SERVICE NEW ORLEANS LA  
300 AM CST THU DEC 08 2022  
 
NOTE: "FAIR" INDICATES FEW OR NO CLOUDS BELOW 12,000 FEET WITH NO  
SIGNIFICANT WEATHER AND/OR S TO VISIBILITY
.  
SKY/WX - SKY CONDITION AND SIGNIFICANT WEATHER.  
TMP - AIR TEMPERATURE. DP - DEWPOINT TEMPERATURE.  
RH - RELATIVE HUMIDITY. PRES - PRESSURE.  
HI - HEAT INDEX. WCI - WIND CHILL INDEX.  
 
* THESE STATIONS ARE NOT NWS OR FAA STATIONS AND ARE NOT UNDER  
NWS QUALITY CONTROL.  
 
LAZ038-048-061-063-065>067-069-076-077-081000-  
SOUTHEAST LOUISIANA  
 
CITY SKY/WX TMP DP RH WIND PRES REMARKS
 
N.O. INTL ARPT FOG 67 67 100 CALM 30.25S VSB 1/8  
N.O. DWNTWN HE CLOUDY 70 68 94 CALM 30.26S FOG  
N.O. LAKEFRONT FOG 65 64 97 N5 30.25S VSB 1/4  
RESERVE* FOG 68 66 94 CALM 30.25S VSB 1/4  
SLIDELL FOG 69 69 100 CALM 30.24F VSB 1/4  
BATON ROUGE FOG 67 67 100 S8 30.23F VSB 3/4  
BOOTHVILLE* CLOUDY 65 63 92 CALM 30.25S VSB 1/4  
BELLE CHASSE* FOG 63 63 100 CALM 30.24 VSB 1/4  
BOGALUSA* CLOUDY 69 67 93 CALM 30.25F VSB 1/2  
GALLIANO* FOG 62 60 94 CALM 30.25S VSB 3/4  
NEW ROADS* FOG 66 66 100 CALM 30.24S VSB 1/4  
GONZALES* FOG 65 65 99 CALM 30.24S VSB 1/4  
HAMMOND* FOG 66 66 100 S3 30.24F VSB 1/4  
HOUMA* HVY RAIN 62 62 99 CALM 30.25S VSB<1/4  
 

 
 
MSZ070-077-080>082-081000-  
SOUTHERN MISSISSIPPI  
 
CITY SKY/WX TMP DP RH WIND PRES REMARKS
 
MCCOMB FOG 59 58 96 S5 30.24S VSB 1/4  
GULFPORT FOG 68 67 96 CALM 30.24F VSB 1/4  
BILOXI FOG 66 66 100 CALM 30.22F VSB 3/8  
PASCAGOULA FOG 67 67 100 CALM 30.25F VSB 1/4  
 

 
 
COASTAL OBSERVATIONS  
LAKE AND NEARSHORE STATIONS  
 
STATION/POSITION TIME SKY/WX TEMP WIND PRES WAVE
 
AIR SEA DIR/SP/G HT/PER  
(UTC) (F) (DEG/KT/KT) (MB) (FT/S)  
WAVELAND YACHT 0830 73 67 CALM / 2 1024.8  
GRAND ISLE 0830 69 72 1024.0  
SOUTHWEST PASS 0830 70 1023.6  
NEW CANAL 0830 67 71 CALM 1023.5  
SHELL BEACH 0830 68 64 170/ 3/ 4 1024.4  
 
OFFSHORE STATIONS  
 
STATION/POSITION TIME SKY/WX TEMP WIND PRES WAVE
 
AIR SEA DIR/SP/G HT/PER  
(UTC) (F) (DEG/KT/KT) (MB) (FT/S)  
64 S DAUPHIN ISL 0850 74 74 170/ 2/ 2 1024.5 1/ 5  
SW PASS ENTRANCE 0830 70 71 N/A 2/ 5  
 

 
 
 
 
CLICK HERE TO GO TO PREVIOUS BULLETINS.

The Nexlab LA Page
The Nexlab MS Page Main Text Page